Time,TemperatureF,DewpointF,PressureIn,WindDirection,WindDirectionDegrees,WindSpeedMPH,WindSpeedGustMPH,Humidity,HourlyPrecipIn,Conditions,Clouds,dailyrainin,SoftwareType,DateUTC
2013-04-17 00:00:00,44.3,36.5,30.14,NW,311,0.0,0.0,74,0.00,,---,0.38,VWS V14.01,2013-04-17 04:00:00,
2013-04-17 00:05:00,44.3,36.5,30.14,NW,311,0.0,0.0,74,0.00,,---,0.00,VWS V14.01,2013-04-17 04:05:00,
2013-04-17 00:10:00,44.3,36.5,30.14,NW,311,0.0,0.0,74,0.00,,---,0.00,VWS V14.01,2013-04-17 04:10:00,
2013-04-17 00:15:00,44.3,36.9,30.14,NW,311,0.0,0.0,75,0.00,,---,0.00,VWS V14.01,2013-04-17 04:15:00,
2013-04-17 00:20:00,44.3,37.6,30.14,NW,311,0.0,0.0,77,0.00,,---,0.00,VWS V14.01,2013-04-17 04:20:00,
2013-04-17 00:25:00,44.3,36.9,30.14,NW,311,0.0,0.0,75,0.00,,---,0.00,VWS V14.01,2013-04-17 04:25:00,
2013-04-17 00:30:00,44.3,36.5,30.14,NW,311,0.0,1.0,74,0.00,,---,0.00,VWS V14.01,2013-04-17 04:30:00,
2013-04-17 00:35:00,44.3,36.5,30.16,NW,311,0.0,1.0,74,0.00,,---,0.00,VWS V14.01,2013-04-17 04:35:00,
2013-04-17 00:40:00,44.3,36.9,30.16,NW,311,0.0,0.0,75,0.00,,---,0.00,VWS V14.01,2013-04-17 04:40:00,
2013-04-17 00:45:00,44.3,36.5,30.16,NW,311,0.0,1.0,74,0.00,,---,0.00,VWS V14.01,2013-04-17 04:45:00,
2013-04-17 00:50:00,44.2,36.5,30.17,NW,311,0.0,0.0,74,0.00,,---,0.00,VWS V14.01,2013-04-17 04:50:00,
2013-04-17 00:55:00,44.2,36.8,30.17,NW,311,0.0,0.0,75,0.00,,---,0.00,VWS V14.01,2013-04-17 04:55:00,
2013-04-17 01:00:00,44.2,37.1,30.17,NW,311,0.0,0.0,76,0.00,,---,0.00,VWS V14.01,2013-04-17 05:00:00,
2013-04-17 01:05:00,44.1,36.7,30.15,NW,311,0.0,0.0,75,0.00,,---,0.00,VWS V14.01,2013-04-17 05:05:00,
2013-04-17 01:10:00,44.1,37.7,30.15,NW,311,0.0,0.0,78,0.00,,---,0.00,VWS V14.01,2013-04-17 05:10:00,
2013-04-17 01:15:00,44.0,37.3,30.15,NW,311,0.0,0.0,77,0.00,,---,0.00,VWS V14.01,2013-04-17 05:15:00,
2013-04-17 01:20:00,44.0,37.6,30.15,NW,311,0.0,0.0,78,0.00,,---,0.00,VWS V14.01,2013-04-17 05:20:00,
2013-04-17 01:25:00,44.0,37.3,30.15,NW,311,0.0,0.0,77,0.00,,---,0.00,VWS V14.01,2013-04-17 05:25:00,
2013-04-17 01:30:00,44.0,36.9,30.15,NW,311,0.0,0.0,76,0.00,,---,0.00,VWS V14.01,2013-04-17 05:30:00,
2013-04-17 01:35:00,44.0,37.3,30.15,NW,311,0.0,0.0,77,0.00,,---,0.00,VWS V14.01,2013-04-17 05:35:00,
2013-04-17 01:40:00,44.0,37.6,30.15,NW,311,0.0,0.0,78,0.00,,---,0.00,VWS V14.01,2013-04-17 05:40:00,
2013-04-17 01:45:00,44.0,37.3,30.15,NW,311,0.0,0.0,77,0.00,,---,0.00,VWS V14.01,2013-04-17 05:45:00,
2013-04-17 01:50:00,44.0,37.3,30.16,NW,311,0.0,1.0,77,0.00,,---,0.00,VWS V14.01,2013-04-17 05:50:00,
2013-04-17 01:55:00,44.0,37.3,30.16,NW,311,0.0,0.0,77,0.00,,---,0.00,VWS V14.01,2013-04-17 05:55:00,
2013-04-17 02:00:00,44.0,37.6,30.16,NW,311,0.0,0.0,78,0.00,,---,0.00,VWS V14.01,2013-04-17 06:00:00,
2013-04-17 02:05:00,44.0,37.6,30.15,NW,311,0.0,0.0,78,0.00,,---,0.00,VWS V14.01,2013-04-17 06:05:00,
2013-04-17 02:10:00,44.0,37.3,30.15,NW,311,0.0,1.0,77,0.00,,---,0.00,VWS V14.01,2013-04-17 06:10:00,
2013-04-17 02:15:00,44.1,37.4,30.15,NW,311,0.0,0.0,77,0.00,,---,0.00,VWS V14.01,2013-04-17 06:15:00,
2013-04-17 02:20:00,44.1,37.4,30.15,NW,311,0.0,0.0,77,0.00,,---,0.00,VWS V14.01,2013-04-17 06:20:00,
2013-04-17 02:25:00,44.0,37.6,30.15,NW,311,0.0,0.0,78,0.00,,---,0.00,VWS V14.01,2013-04-17 06:25:00,
2013-04-17 02:30:00,43.9,37.8,30.15,NW,311,0.0,0.0,79,0.00,,---,0.00,VWS V14.01,2013-04-17 06:30:00,
2013-04-17 02:35:00,43.8,38.0,30.15,NW,311,0.0,0.0,80,0.00,,---,0.00,VWS V14.01,2013-04-17 06:35:00,
2013-04-17 02:40:00,43.9,37.8,30.15,NW,311,0.0,1.0,79,0.00,,---,0.00,VWS V14.01,2013-04-17 06:40:00,
2013-04-17 02:45:00,44.0,37.6,30.15,NW,311,0.0,0.0,78,0.00,,---,0.00,VWS V14.01,2013-04-17 06:45:00,
2013-04-17 02:50:00,44.0,37.9,30.15,NW,311,0.0,0.0,79,0.00,,---,0.00,VWS V14.01,2013-04-17 06:50:00,
2013-04-17 02:55:00,44.1,37.7,30.15,NW,311,1.0,1.0,78,0.00,,---,0.00,VWS V14.01,2013-04-17 06:55:00,
2013-04-17 03:00:00,44.2,37.5,30.15,NW,311,0.0,0.0,77,0.00,,---,0.00,VWS V14.01,2013-04-17 07:00:00,
2013-04-17 03:05:00,44.4,37.7,30.17,NW,311,0.0,1.0,77,0.00,,---,0.00,VWS V14.01,2013-04-17 07:05:00,
2013-04-17 03:10:00,44.4,38.0,30.17,NW,311,0.0,0.0,78,0.00,,---,0.00,VWS V14.01,2013-04-17 07:10:00,
2013-04-17 03:15:00,44.4,38.0,30.17,NW,310,0.0,0.0,78,0.00,,---,0.00,VWS V14.01,2013-04-17 07:15:00,
2013-04-17 03:20:00,44.4,38.3,30.16,NW,311,0.0,0.0,79,0.00,,---,0.00,VWS V14.01,2013-04-17 07:20:00,
2013-04-17 03:25:00,44.4,38.3,30.16,NW,311,0.0,0.0,79,0.00,,---,0.00,VWS V14.01,2013-04-17 07:25:00,
2013-04-17 03:30:00,44.4,38.3,30.16,NW,311,0.0,0.0,79,0.00,,---,0.00,VWS V14.01,2013-04-17 07:30:00,
2013-04-17 03:35:00,44.5,38.7,30.16,NW,311,0.0,0.0,80,0.00,,---,0.00,VWS V14.01,2013-04-17 07:35:00,
2013-04-17 03:39:00,44.6,39.1,30.16,NW,311,0.0,0.0,81,0.00,,---,0.00,VWS V14.01,2013-04-17 07:39:00,
2013-04-17 03:44:00,44.7,38.6,30.16,NW,311,0.0,0.0,79,0.00,,---,0.00,VWS V14.01,2013-04-17 07:44:00,
2013-04-17 03:49:00,44.9,38.5,30.16,NW,311,0.0,0.0,78,0.00,,---,0.00,VWS V14.01,2013-04-17 07:49:00,
2013-04-17 03:54:00,45.1,38.3,30.16,NW,311,0.0,0.0,77,0.00,,---,0.00,VWS V14.01,2013-04-17 07:54:00,
2013-04-17 03:59:00,45.2,38.1,30.16,NW,311,0.0,0.0,76,0.00,,---,0.00,VWS V14.01,2013-04-17 07:59:00,
2013-04-17 04:04:00,45.3,38.5,30.16,NW,311,0.0,0.0,77,0.00,,---,0.00,VWS V14.01,2013-04-17 08:04:00,
2013-04-17 04:09:00,45.3,38.2,30.16,NW,311,0.0,0.0,76,0.00,,---,0.00,VWS V14.01,2013-04-17 08:09:00,
2013-04-17 04:14:00,45.4,38.6,30.16,NW,311,0.0,0.0,77,0.00,,---,0.00,VWS V14.01,2013-04-17 08:14:00,
2013-04-17 04:19:00,45.4,38.3,30.16,NW,311,0.0,0.0,76,0.00,,---,0.00,VWS V14.01,2013-04-17 08:19:00,
2013-04-17 04:24:00,45.3,38.5,30.16,NW,311,0.0,0.0,77,0.00,,---,0.00,VWS V14.01,2013-04-17 08:24:00,
2013-04-17 04:29:00,45.3,38.2,30.16,NW,311,0.0,0.0,76,0.00,,---,0.00,VWS V14.01,2013-04-17 08:29:00,
2013-04-17 04:34:00,45.2,38.1,30.15,NW,311,0.0,0.0,76,0.00,,---,0.00,VWS V14.01,2013-04-17 08:34:00,
2013-04-17 04:39:00,45.2,38.1,30.15,NW,311,0.0,0.0,76,0.00,,---,0.00,VWS V14.01,2013-04-17 08:39:00,
2013-04-17 04:44:00,45.2,38.4,30.15,NW,311,0.0,0.0,77,0.00,,---,0.00,VWS V14.01,2013-04-17 08:44:00,
2013-04-17 04:49:00,45.4,38.6,30.16,NW,311,0.0,0.0,77,0.00,,---,0.00,VWS V14.01,2013-04-17 08:49:00,
2013-04-17 04:54:00,45.4,38.0,30.16,NW,311,0.0,1.0,75,0.00,,---,0.00,VWS V14.01,2013-04-17 08:54:00,
2013-04-17 04:59:00,45.2,38.1,30.16,NW,311,0.0,0.0,76,0.00,,---,0.00,VWS V14.01,2013-04-17 08:59:00,
2013-04-17 05:04:00,45.1,38.0,30.17,NW,311,0.0,1.0,76,0.00,,---,0.00,VWS V14.01,2013-04-17 09:04:00,
2013-04-17 05:09:00,45.1,38.0,30.17,NW,311,0.0,0.0,76,0.00,,---,0.00,VWS V14.01,2013-04-17 09:09:00,
2013-04-17 05:14:00,45.0,38.2,30.17,NW,311,0.0,0.0,77,0.00,,---,0.00,VWS V14.01,2013-04-17 09:14:00,
2013-04-17 05:19:00,44.9,38.1,30.16,NW,311,0.0,0.0,77,0.00,,---,0.00,VWS V14.01,2013-04-17 09:19:00,
2013-04-17 05:24:00,44.8,38.0,30.16,NW,311,0.0,0.0,77,0.00,,---,0.00,VWS V14.01,2013-04-17 09:24:00,
2013-04-17 05:29:00,44.6,37.8,30.16,NW,311,0.0,0.0,77,0.00,,---,0.00,VWS V14.01,2013-04-17 09:29:00,
2013-04-17 05:34:00,44.5,38.1,30.17,NW,311,0.0,0.0,78,0.00,,---,0.00,VWS V14.01,2013-04-17 09:34:00,
2013-04-17 05:39:00,44.5,38.1,30.17,NW,311,0.0,0.0,78,0.00,,---,0.00,VWS V14.01,2013-04-17 09:39:00,
2013-04-17 05:44:00,44.7,38.3,30.17,NW,311,0.0,0.0,78,0.00,,---,0.00,VWS V14.01,2013-04-17 09:44:00,
2013-04-17 05:49:00,44.9,38.1,30.16,NW,311,0.0,1.0,77,0.00,,---,0.00,VWS V14.01,2013-04-17 09:49:00,
2013-04-17 05:54:00,44.9,38.5,30.16,NW,313,0.0,0.0,78,0.00,,---,0.00,VWS V14.01,2013-04-17 09:54:00,
2013-04-17 05:59:00,44.9,38.5,30.16,NW,313,0.0,0.0,78,0.00,,---,0.00,VWS V14.01,2013-04-17 09:59:00,
2013-04-17 06:04:00,44.9,38.1,30.17,NW,313,0.0,0.0,77,0.00,,---,0.00,VWS V14.01,2013-04-17 10:04:00,
2013-04-17 06:09:00,44.7,37.9,30.17,NW,313,0.0,0.0,77,0.00,,---,0.00,VWS V14.01,2013-04-17 10:09:00,
2013-04-17 06:14:00,44.6,37.8,30.17,NW,313,0.0,0.0,77,0.00,,---,0.00,VWS V14.01,2013-04-17 10:14:00,
2013-04-17 06:19:00,44.5,38.1,30.17,NW,313,0.0,0.0,78,0.00,,---,0.00,VWS V14.01,2013-04-17 10:19:00,
2013-04-17 06:24:00,44.5,38.1,30.17,NW,313,0.0,0.0,78,0.00,,---,0.00,VWS V14.01,2013-04-17 10:24:00,
2013-04-17 06:29:00,44.5,38.1,30.17,NW,313,0.0,1.0,78,0.00,,---,0.00,VWS V14.01,2013-04-17 10:29:00,
2013-04-17 06:34:00,44.6,38.2,30.16,NW,313,0.0,0.0,78,0.00,,---,0.00,VWS V14.01,2013-04-17 10:34:00,
2013-04-17 06:39:00,44.5,38.1,30.16,NW,313,0.0,1.0,78,0.00,,---,0.00,VWS V14.01,2013-04-17 10:39:00,
2013-04-17 06:44:00,44.6,37.8,30.16,East,93,0.0,2.0,77,0.00,,---,0.00,VWS V14.01,2013-04-17 10:44:00,
2013-04-17 06:49:00,44.6,37.5,30.16,East,89,0.0,0.0,76,0.00,,---,0.00,VWS V14.01,2013-04-17 10:49:00,
2013-04-17 06:54:00,44.6,37.8,30.16,East,94,0.0,0.0,77,0.00,,---,0.00,VWS V14.01,2013-04-17 10:54:00,
2013-04-17 06:59:00,44.3,37.9,30.16,East,84,2.0,3.0,78,0.00,,---,0.00,VWS V14.01,2013-04-17 10:59:00,
2013-04-17 07:04:00,44.4,38.0,30.16,East,92,0.0,2.0,78,0.00,,---,0.00,VWS V14.01,2013-04-17 11:04:00,
2013-04-17 07:09:00,44.5,37.8,30.16,East,89,3.0,4.0,77,0.00,,---,0.00,VWS V14.01,2013-04-17 11:09:00,
2013-04-17 07:14:00,44.5,38.1,30.16,ESE,116,2.0,6.0,78,0.00,,---,0.00,VWS V14.01,2013-04-17 11:14:00,
2013-04-17 07:19:00,44.7,37.9,30.14,East,90,0.0,2.0,77,0.00,,---,0.00,VWS V14.01,2013-04-17 11:19:00,
2013-04-17 07:24:00,44.8,38.4,30.14,East,94,0.0,4.0,78,0.00,,---,0.00,VWS V14.01,2013-04-17 11:24:00,
2013-04-17 07:29:00,45.0,38.6,30.14,East,90,0.0,1.0,78,0.00,,---,0.00,VWS V14.01,2013-04-17 11:29:00,
2013-04-17 07:34:00,45.1,38.7,30.16,East,95,2.0,3.0,78,0.00,,---,0.00,VWS V14.01,2013-04-17 11:34:00,
2013-04-17 07:39:00,45.2,38.4,30.16,ENE,74,1.0,5.0,77,0.00,,---,0.00,VWS V14.01,2013-04-17 11:39:00,
2013-04-17 07:44:00,45.4,39.0,30.16,East,80,2.0,5.0,78,0.00,,---,0.00,VWS V14.01,2013-04-17 11:44:00,
2013-04-17 07:49:00,45.5,38.7,30.16,East,82,1.0,1.0,77,0.00,,---,0.00,VWS V14.01,2013-04-17 11:49:00,
2013-04-17 07:54:00,45.6,38.8,30.16,East,93,2.0,3.0,77,0.00,,---,0.00,VWS V14.01,2013-04-17 11:54:00,
2013-04-17 07:59:00,45.6,38.8,30.16,ENE,65,1.0,3.0,77,0.00,,---,0.00,VWS V14.01,2013-04-17 11:59:00,
2013-04-17 08:04:00,45.7,38.9,30.15,East,91,3.0,5.0,77,0.00,,---,0.00,VWS V14.01,2013-04-17 12:04:00,
2013-04-17 08:09:00,45.7,38.6,30.15,East,89,4.0,8.0,76,0.00,,---,0.00,VWS V14.01,2013-04-17 12:09:00,
2013-04-17 08:14:00,45.8,38.7,30.15,ENE,77,4.0,4.0,76,0.00,,---,0.00,VWS V14.01,2013-04-17 12:14:00,
2013-04-17 08:19:00,45.9,38.8,30.16,East,82,2.0,2.0,76,0.00,,---,0.00,VWS V14.01,2013-04-17 12:19:00,
2013-04-17 08:24:00,46.0,38.9,30.16,East,85,3.0,5.0,76,0.00,,---,0.00,VWS V14.01,2013-04-17 12:24:00,
2013-04-17 08:29:00,46.0,38.9,30.16,ENE,72,0.0,0.0,76,0.00,,---,0.00,VWS V14.01,2013-04-17 12:29:00,
2013-04-17 08:34:00,46.1,38.6,30.16,East,87,2.0,3.0,75,0.00,,---,0.00,VWS V14.01,2013-04-17 12:34:00,
2013-04-17 08:39:00,46.1,38.6,30.16,East,82,1.0,1.0,75,0.00,,---,0.00,VWS V14.01,2013-04-17 12:39:00,
2013-04-17 08:44:00,46.3,38.8,30.16,East,87,2.0,2.0,75,0.00,,---,0.00,VWS V14.01,2013-04-17 12:44:00,
2013-04-17 08:49:00,46.8,39.3,30.16,East,82,0.0,1.0,75,0.00,,---,0.00,VWS V14.01,2013-04-17 12:49:00,
2013-04-17 08:54:00,47.2,39.3,30.16,ENE,67,2.0,4.0,74,0.00,,---,0.00,VWS V14.01,2013-04-17 12:54:00,
2013-04-17 08:59:00,47.6,39.0,30.16,East,101,2.0,4.0,72,0.00,,---,0.00,VWS V14.01,2013-04-17 12:59:00,
2013-04-17 09:04:00,47.4,38.5,30.14,ESE,108,2.0,5.0,71,0.00,,---,0.00,VWS V14.01,2013-04-17 13:04:00,
2013-04-17 09:09:00,47.5,38.6,30.14,ENE,71,6.0,8.0,71,0.00,,---,0.00,VWS V14.01,2013-04-17 13:09:00,
2013-04-17 09:14:00,47.5,38.2,30.14,ESE,108,7.0,7.0,70,0.00,,---,0.00,VWS V14.01,2013-04-17 13:14:00,
2013-04-17 09:19:00,47.5,38.2,30.13,East,94,3.0,7.0,70,0.00,,---,0.00,VWS V14.01,2013-04-17 13:19:00,
2013-04-17 09:24:00,47.7,39.1,30.13,ENE,69,3.0,8.0,72,0.00,,---,0.00,VWS V14.01,2013-04-17 13:24:00,
2013-04-17 09:29:00,48.0,39.1,30.13,East,101,4.0,10.0,71,0.00,,---,0.00,VWS V14.01,2013-04-17 13:29:00,
2013-04-17 09:34:00,48.1,38.4,30.14,East,91,3.0,3.0,69,0.00,,---,0.00,VWS V14.01,2013-04-17 13:34:00,
2013-04-17 09:39:00,48.3,39.0,30.14,ENE,75,3.0,3.0,70,0.00,,---,0.00,VWS V14.01,2013-04-17 13:39:00,
2013-04-17 09:44:00,48.5,38.8,30.14,East,90,5.0,5.0,69,0.00,,---,0.00,VWS V14.01,2013-04-17 13:44:00,
2013-04-17 09:49:00,48.7,38.6,30.14,ESE,104,3.0,4.0,68,0.00,,---,0.00,VWS V14.01,2013-04-17 13:49:00,
2013-04-17 09:54:00,48.9,38.8,30.14,East,82,5.0,7.0,68,0.00,,---,0.00,VWS V14.01,2013-04-17 13:54:00,
2013-04-17 09:59:00,49.3,38.8,30.14,ENE,77,3.0,7.0,67,0.00,,---,0.00,VWS V14.01,2013-04-17 13:59:00,
2013-04-17 10:04:00,49.5,39.4,30.13,East,82,2.0,2.0,68,0.00,,---,0.00,VWS V14.01,2013-04-17 14:04:00,
2013-04-17 10:09:00,50.6,40.4,30.13,ENE,77,1.0,1.0,68,0.00,,---,0.00,VWS V14.01,2013-04-17 14:09:00,
2013-04-17 10:14:00,50.6,39.7,30.13,ENE,75,2.0,5.0,66,0.00,,---,0.00,VWS V14.01,2013-04-17 14:14:00,
2013-04-17 10:19:00,50.4,39.5,30.13,SE,127,9.0,9.0,66,0.00,,---,0.00,VWS V14.01,2013-04-17 14:19:00,
2013-04-17 10:24:00,50.3,39.8,30.13,East,82,4.0,6.0,67,0.00,,---,0.00,VWS V14.01,2013-04-17 14:24:00,
2013-04-17 10:29:00,50.6,40.1,30.13,ENE,74,3.0,6.0,67,0.00,,---,0.00,VWS V14.01,2013-04-17 14:29:00,
2013-04-17 10:34:00,50.9,40.3,30.12,East,82,4.0,5.0,67,0.00,,---,0.00,VWS V14.01,2013-04-17 14:34:00,
2013-04-17 10:39:00,51.8,41.6,30.12,East,82,1.0,1.0,68,0.00,,---,0.00,VWS V14.01,2013-04-17 14:39:00,
2013-04-17 10:44:00,52.3,40.9,30.12,East,94,1.0,1.0,65,0.00,,---,0.00,VWS V14.01,2013-04-17 14:44:00,
2013-04-17 10:49:00,52.3,40.9,30.12,East,84,2.0,3.0,65,0.00,,---,0.00,VWS V14.01,2013-04-17 14:49:00,
2013-04-17 10:54:00,52.3,41.7,30.12,East,86,1.0,1.0,67,0.00,,---,0.00,VWS V14.01,2013-04-17 14:54:00,
2013-04-17 10:59:00,52.6,42.0,30.12,ENE,78,5.0,6.0,67,0.00,,---,0.00,VWS V14.01,2013-04-17 14:59:00,
2013-04-17 11:04:00,53.2,42.2,30.12,East,92,0.0,0.0,66,0.00,,---,0.00,VWS V14.01,2013-04-17 15:04:00,
2013-04-17 11:09:00,53.9,42.4,30.12,East,84,3.0,4.0,65,0.00,,---,0.00,VWS V14.01,2013-04-17 15:09:00,
2013-04-17 11:14:00,53.7,42.2,30.12,ENE,77,2.0,2.0,65,0.00,,---,0.00,VWS V14.01,2013-04-17 15:14:00,
2013-04-17 11:19:00,53.7,42.2,30.13,East,88,1.0,3.0,65,0.00,,---,0.00,VWS V14.01,2013-04-17 15:19:00,
2013-04-17 11:24:00,54.3,43.2,30.13,ESE,113,0.0,1.0,66,0.00,,---,0.00,VWS V14.01,2013-04-17 15:24:00,
2013-04-17 11:29:00,54.2,42.3,30.13,East,84,5.0,7.0,64,0.00,,---,0.00,VWS V14.01,2013-04-17 15:29:00,
2013-04-17 11:34:00,53.9,42.4,30.13,East,92,2.0,2.0,65,0.00,,---,0.00,VWS V14.01,2013-04-17 15:34:00,
2013-04-17 11:39:00,53.7,42.6,30.13,ESE,113,3.0,6.0,66,0.00,,---,0.00,VWS V14.01,2013-04-17 15:39:00,
2013-04-17 11:44:00,53.5,42.4,30.13,East,89,1.0,2.0,66,0.00,,---,0.00,VWS V14.01,2013-04-17 15:44:00,
2013-04-17 11:49:00,53.3,42.6,30.12,ESE,110,3.0,5.0,67,0.00,,---,0.00,VWS V14.01,2013-04-17 15:49:00,
2013-04-17 11:54:00,53.1,42.8,30.12,East,81,2.0,2.0,68,0.00,,---,0.00,VWS V14.01,2013-04-17 15:54:00,
2013-04-17 11:59:00,53.1,42.8,30.12,ESE,110,6.0,7.0,68,0.00,,---,0.00,VWS V14.01,2013-04-17 15:59:00,
2013-04-17 12:04:00,53.2,42.9,30.13,ENE,69,0.0,1.0,68,0.00,,---,0.00,VWS V14.01,2013-04-17 16:04:00,
2013-04-17 12:09:00,53.5,42.8,30.13,ENE,77,2.0,3.0,67,0.00,,---,0.00,VWS V14.01,2013-04-17 16:09:00,
2013-04-17 12:14:00,54.0,43.3,30.13,ENE,72,1.0,2.0,67,0.00,,---,0.00,VWS V14.01,2013-04-17 16:14:00,
2013-04-17 12:19:00,54.1,43.4,30.12,ESE,106,1.0,4.0,67,0.00,,---,0.00,VWS V14.01,2013-04-17 16:19:00,
2013-04-17 12:24:00,54.0,43.3,30.12,East,87,2.0,4.0,67,0.00,,---,0.00,VWS V14.01,2013-04-17 16:24:00,
2013-04-17 12:29:00,53.7,42.6,30.12,SE,141,3.0,4.0,66,0.00,,---,0.00,VWS V14.01,2013-04-17 16:29:00,
2013-04-17 12:34:00,53.4,43.1,30.11,East,95,5.0,6.0,68,0.00,,---,0.00,VWS V14.01,2013-04-17 16:34:00,
2013-04-17 12:39:00,53.5,43.6,30.11,East,98,1.0,1.0,69,0.00,,---,0.00,VWS V14.01,2013-04-17 16:39:00,
2013-04-17 12:44:00,53.8,43.5,30.11,SE,137,5.0,6.0,68,0.00,,---,0.00,VWS V14.01,2013-04-17 16:44:00,
2013-04-17 12:49:00,53.6,42.9,30.10,ENE,77,1.0,3.0,67,0.00,,---,0.00,VWS V14.01,2013-04-17 16:49:00,
2013-04-17 12:54:00,53.4,43.1,30.10,East,84,3.0,10.0,68,0.00,,---,0.00,VWS V14.01,2013-04-17 16:54:00,
2013-04-17 12:59:00,53.3,42.6,30.10,ESE,108,6.0,8.0,67,0.00,,---,0.00,VWS V14.01,2013-04-17 16:59:00,
2013-04-17 13:04:00,53.3,43.0,30.08,East,88,3.0,3.0,68,0.00,,---,0.00,VWS V14.01,2013-04-17 17:04:00,
2013-04-17 13:09:00,53.3,43.0,30.08,ESE,108,2.0,4.0,68,0.00,,---,0.00,VWS V14.01,2013-04-17 17:09:00,
2013-04-17 13:14:00,53.2,42.9,30.08,East,89,3.0,4.0,68,0.00,,---,0.00,VWS V14.01,2013-04-17 17:14:00,
2013-04-17 13:19:00,53.2,43.3,30.07,ENE,60,2.0,3.0,69,0.00,,---,0.00,VWS V14.01,2013-04-17 17:19:00,
2013-04-17 13:24:00,53.1,43.2,30.07,ENE,77,2.0,2.0,69,0.00,,---,0.00,VWS V14.01,2013-04-17 17:24:00,
2013-04-17 13:29:00,53.1,43.2,30.07,East,89,3.0,7.0,69,0.00,,---,0.00,VWS V14.01,2013-04-17 17:29:00,
2013-04-17 13:34:00,53.0,43.1,30.06,ESE,113,5.0,5.0,69,0.00,,---,0.00,VWS V14.01,2013-04-17 17:34:00,
2013-04-17 13:39:00,52.9,44.1,30.06,East,95,2.0,3.0,72,0.00,,---,0.00,VWS V14.01,2013-04-17 17:39:00,
2013-04-17 13:44:00,52.2,44.2,30.06,East,101,1.0,1.0,74,0.00,,---,0.00,VWS V14.01,2013-04-17 17:44:00,
2013-04-17 13:49:00,51.9,44.6,30.06,ESE,104,0.0,0.0,76,0.00,,---,0.00,VWS V14.01,2013-04-17 17:49:00,
2013-04-17 13:54:00,52.0,44.7,30.06,ENE,60,4.0,5.0,76,0.00,,---,0.00,VWS V14.01,2013-04-17 17:54:00,
2013-04-17 13:59:00,52.1,44.4,30.06,East,89,0.0,0.0,75,0.00,,---,0.00,VWS V14.01,2013-04-17 17:59:00,
2013-04-17 14:04:00,52.2,44.5,30.04,East,100,2.0,2.0,75,0.00,,---,0.00,VWS V14.01,2013-04-17 18:04:00,
2013-04-17 14:09:00,52.4,44.7,30.04,ESE,117,2.0,2.0,75,0.00,,---,0.00,VWS V14.01,2013-04-17 18:09:00,
2013-04-17 14:14:00,52.5,44.5,30.04,ENE,77,5.0,6.0,74,0.00,,---,0.00,VWS V14.01,2013-04-17 18:14:00,
2013-04-17 14:19:00,52.5,44.8,30.04,East,82,2.0,3.0,75,0.00,,---,0.00,VWS V14.01,2013-04-17 18:19:00,
2013-04-17 14:24:00,52.7,44.7,30.04,ENE,77,2.0,2.0,74,0.00,,---,0.00,VWS V14.01,2013-04-17 18:24:00,
2013-04-17 14:29:00,52.8,45.1,30.04,East,81,3.0,3.0,75,0.00,,---,0.00,VWS V14.01,2013-04-17 18:29:00,
2013-04-17 14:34:00,53.0,45.0,30.03,East,84,2.0,2.0,74,0.00,,---,0.00,VWS V14.01,2013-04-17 18:34:00,
2013-04-17 14:39:00,53.2,45.1,30.03,ENE,61,7.0,7.0,74,0.00,,---,0.00,VWS V14.01,2013-04-17 18:39:00,
2013-04-17 14:44:00,53.6,45.5,30.03,ESE,102,5.0,8.0,74,0.00,,---,0.00,VWS V14.01,2013-04-17 18:44:00,
2013-04-17 14:49:00,53.9,45.5,30.01,ESE,118,6.0,6.0,73,0.00,,---,0.00,VWS V14.01,2013-04-17 18:49:00,
2013-04-17 14:54:00,53.9,45.1,30.01,ESE,103,7.0,11.0,72,0.00,,---,0.00,VWS V14.01,2013-04-17 18:54:00,
2013-04-17 14:59:00,53.7,44.9,30.01,ESE,110,4.0,4.0,72,0.00,,---,0.00,VWS V14.01,2013-04-17 18:59:00,
2013-04-17 15:04:00,53.5,44.7,30.01,ENE,78,1.0,5.0,72,0.00,,---,0.00,VWS V14.01,2013-04-17 19:04:00,
2013-04-17 15:09:00,53.5,45.4,30.01,East,94,4.0,7.0,74,0.00,,---,0.00,VWS V14.01,2013-04-17 19:09:00,
2013-04-17 15:14:00,53.1,45.8,30.01,ENE,77,2.0,3.0,76,0.00,,---,0.00,VWS V14.01,2013-04-17 19:14:00,
2013-04-17 15:19:00,52.7,46.0,30.00,East,98,3.0,3.0,78,0.01,,---,0.01,VWS V14.01,2013-04-17 19:19:00,
2013-04-17 15:24:00,52.4,46.4,30.00,East,91,1.0,1.0,80,0.02,,---,0.02,VWS V14.01,2013-04-17 19:24:00,
2013-04-17 15:29:00,51.7,46.4,30.00,ENE,77,4.0,4.0,82,0.03,,---,0.03,VWS V14.01,2013-04-17 19:29:00,
2013-04-17 15:34:00,51.2,46.5,29.98,East,95,5.0,6.0,84,0.03,,---,0.03,VWS V14.01,2013-04-17 19:34:00,
2013-04-17 15:39:00,50.8,46.5,29.98,East,87,2.0,2.0,85,0.03,,---,0.03,VWS V14.01,2013-04-17 19:39:00,
2013-04-17 15:44:00,50.5,46.2,29.98,ENE,74,2.0,2.0,85,0.03,,---,0.03,VWS V14.01,2013-04-17 19:44:00,
2013-04-17 15:49:00,50.5,46.5,29.98,ESE,102,2.0,6.0,86,0.03,,---,0.03,VWS V14.01,2013-04-17 19:49:00,
2013-04-17 15:54:00,50.6,46.3,29.98,ENE,76,1.0,2.0,85,0.03,,---,0.03,VWS V14.01,2013-04-17 19:54:00,
2013-04-17 15:59:00,50.7,46.0,29.98,ESE,104,3.0,9.0,84,0.03,,---,0.03,VWS V14.01,2013-04-17 19:59:00,
2013-04-17 16:04:00,51.0,45.7,29.97,ENE,76,7.0,10.0,82,0.03,,---,0.03,VWS V14.01,2013-04-17 20:04:00,
2013-04-17 16:09:00,51.3,45.7,29.97,East,98,4.0,7.0,81,0.03,,---,0.03,VWS V14.01,2013-04-17 20:09:00,
2013-04-17 16:14:00,51.4,45.5,29.97,ESE,107,6.0,12.0,80,0.03,,---,0.03,VWS V14.01,2013-04-17 20:14:00,
2013-04-17 16:19:00,51.5,44.9,29.97,ESE,106,2.0,7.0,78,0.03,,---,0.03,VWS V14.01,2013-04-17 20:19:00,
2013-04-17 16:24:00,51.5,44.9,29.97,SE,129,2.0,8.0,78,0.02,,---,0.03,VWS V14.01,2013-04-17 20:24:00,
2013-04-17 16:29:00,51.6,45.0,29.97,ESE,102,2.0,11.0,78,0.01,,---,0.03,VWS V14.01,2013-04-17 20:29:00,
2013-04-17 16:34:00,51.6,45.0,29.96,East,84,3.0,6.0,78,0.00,,---,0.03,VWS V14.01,2013-04-17 20:34:00,
2013-04-17 16:39:00,51.7,44.7,29.96,East,84,3.0,7.0,77,0.00,,---,0.03,VWS V14.01,2013-04-17 20:39:00,
2013-04-17 16:44:00,51.8,44.8,29.96,ESE,108,4.0,10.0,77,0.00,,---,0.03,VWS V14.01,2013-04-17 20:44:00,
2013-04-17 16:49:00,51.9,44.6,29.95,ENE,73,4.0,10.0,76,0.00,,---,0.03,VWS V14.01,2013-04-17 20:49:00,
2013-04-17 16:54:00,51.9,44.6,29.95,East,90,3.0,6.0,76,0.00,,---,0.03,VWS V14.01,2013-04-17 20:54:00,
2013-04-17 16:59:00,51.9,44.6,29.95,ESE,115,3.0,6.0,76,0.00,,---,0.03,VWS V14.01,2013-04-17 20:59:00,
2013-04-17 17:04:00,51.8,44.5,29.95,SE,124,4.0,5.0,76,0.00,,---,0.03,VWS V14.01,2013-04-17 21:04:00,
2013-04-17 17:08:00,51.8,44.5,29.95,East,90,0.0,4.0,76,0.00,,---,0.03,VWS V14.01,2013-04-17 21:08:00,
2013-04-17 17:13:00,51.8,44.5,29.95,SE,129,3.0,7.0,76,0.00,,---,0.03,VWS V14.01,2013-04-17 21:13:00,
2013-04-17 17:18:00,51.8,44.5,29.94,ESE,105,2.0,6.0,76,0.00,,---,0.03,VWS V14.01,2013-04-17 21:18:00,
2013-04-17 17:23:00,51.8,44.1,29.94,East,101,3.0,6.0,75,0.00,,---,0.03,VWS V14.01,2013-04-17 21:23:00,
2013-04-17 17:28:00,51.8,44.1,29.94,ENE,77,6.0,6.0,75,0.00,,---,0.03,VWS V14.01,2013-04-17 21:28:00,
2013-04-17 17:33:00,51.8,43.8,29.94,East,79,4.0,5.0,74,0.00,,---,0.03,VWS V14.01,2013-04-17 21:33:00,
2013-04-17 17:38:00,51.7,43.7,29.94,East,84,1.0,6.0,74,0.00,,---,0.03,VWS V14.01,2013-04-17 21:38:00,
2013-04-17 17:44:00,51.7,44.0,29.94,ENE,71,1.0,7.0,75,0.00,,---,0.03,VWS V14.01,2013-04-17 21:44:00,
2013-04-17 17:49:00,51.6,44.0,29.95,East,101,3.0,7.0,75,0.00,,---,0.03,VWS V14.01,2013-04-17 21:49:00,
2013-04-17 17:53:00,51.6,44.0,29.95,ENE,73,1.0,6.0,75,0.00,,---,0.03,VWS V14.01,2013-04-17 21:53:00,
2013-04-17 17:58:00,51.6,44.0,29.95,East,87,0.0,4.0,75,0.00,,---,0.03,VWS V14.01,2013-04-17 21:58:00,
2013-04-17 18:03:00,51.5,43.8,29.95,SE,141,2.0,5.0,75,0.00,,---,0.03,VWS V14.01,2013-04-17 22:03:00,
2013-04-17 18:08:00,51.5,43.8,29.95,East,91,3.0,7.0,75,0.00,,---,0.03,VWS V14.01,2013-04-17 22:08:00,
2013-04-17 18:13:00,51.5,43.8,29.95,East,91,4.0,7.0,75,0.00,,---,0.03,VWS V14.01,2013-04-17 22:13:00,
2013-04-17 18:18:00,51.4,43.8,29.94,ESE,108,2.0,4.0,75,0.00,,---,0.03,VWS V14.01,2013-04-17 22:18:00,
2013-04-17 18:23:00,51.4,43.8,29.94,ENE,76,2.0,7.0,75,0.00,,---,0.03,VWS V14.01,2013-04-17 22:23:00,
2013-04-17 18:28:00,51.4,43.8,29.94,ESE,121,4.0,8.0,75,0.00,,---,0.03,VWS V14.01,2013-04-17 22:28:00,
2013-04-17 18:33:00,51.3,43.3,29.92,East,79,9.0,9.0,74,0.00,,---,0.03,VWS V14.01,2013-04-17 22:33:00,
2013-04-17 18:38:00,51.3,43.3,29.92,ESE,102,6.0,9.0,74,0.00,,---,0.03,VWS V14.01,2013-04-17 22:38:00,
2013-04-17 18:43:00,51.2,43.6,29.92,ESE,108,4.0,6.0,75,0.00,,---,0.03,VWS V14.01,2013-04-17 22:43:00,
2013-04-17 18:48:00,51.0,43.0,29.92,East,97,3.0,7.0,74,0.00,,---,0.03,VWS V14.01,2013-04-17 22:48:00,
2013-04-17 18:53:00,50.9,43.3,29.92,East,89,2.0,6.0,75,0.00,,---,0.03,VWS V14.01,2013-04-17 22:53:00,
2013-04-17 18:58:00,50.6,43.0,29.92,ENE,68,0.0,4.0,75,0.00,,---,0.03,VWS V14.01,2013-04-17 22:58:00,
2013-04-17 19:03:00,50.3,43.0,29.96,WNW,285,5.0,5.0,76,0.00,,---,0.03,VWS V14.01,2013-04-17 23:03:00,
2013-04-17 19:08:00,50.3,43.0,29.96,NNW,338,0.0,5.0,76,0.00,,---,0.03,VWS V14.01,2013-04-17 23:08:00,
2013-04-17 19:13:00,49.9,42.7,29.96,East,94,1.0,5.0,76,0.00,,---,0.03,VWS V14.01,2013-04-17 23:13:00,
2013-04-17 19:18:00,50.0,43.4,30.05,WSW,248,11.0,21.0,78,0.00,,---,0.03,VWS V14.01,2013-04-17 23:18:00,
2013-04-17 19:23:00,49.8,43.6,30.05,East,83,3.0,9.0,79,0.03,,---,0.06,VWS V14.01,2013-04-17 23:23:00,
2013-04-17 19:28:00,48.5,43.6,30.05,NE,44,0.0,5.0,83,0.07,,---,0.10,VWS V14.01,2013-04-17 23:28:00,
2013-04-17 19:33:00,47.4,43.4,29.93,ENE,60,0.0,2.0,86,0.14,,---,0.17,VWS V14.01,2013-04-17 23:33:00,
2013-04-17 19:38:00,46.9,44.1,29.93,WSW,257,5.0,11.0,90,0.21,,---,0.24,VWS V14.01,2013-04-17 23:38:00,
2013-04-17 19:43:00,46.4,43.9,29.93,ENE,57,1.0,3.0,91,0.25,,---,0.28,VWS V14.01,2013-04-17 23:43:00,
2013-04-17 19:48:00,46.0,43.8,29.98,WNW,291,0.0,5.0,92,0.33,,---,0.36,VWS V14.01,2013-04-17 23:48:00,
2013-04-17 19:53:00,45.7,43.8,29.98,West,274,5.0,6.0,93,0.40,,---,0.43,VWS V14.01,2013-04-17 23:53:00,
2013-04-17 19:58:00,45.5,43.6,29.98,North,0,3.0,6.0,93,0.47,,---,0.50,VWS V14.01,2013-04-17 23:58:00,
2013-04-17 20:03:00,45.3,43.7,30.00,NW,319,3.0,5.0,94,0.49,,---,0.52,VWS V14.01,2013-04-18 00:03:00,
2013-04-17 20:08:00,45.2,43.6,30.00,NNW,336,1.0,4.0,94,0.49,,---,0.52,VWS V14.01,2013-04-18 00:08:00,
2013-04-17 20:13:00,45.1,43.5,30.00,NW,321,0.0,3.0,94,0.49,,---,0.52,VWS V14.01,2013-04-18 00:13:00,
2013-04-17 20:18:00,45.1,43.5,29.99,NNW,341,0.0,5.0,94,0.49,,---,0.52,VWS V14.01,2013-04-18 00:18:00,
2013-04-17 20:23:00,45.1,43.8,29.99,NNW,341,0.0,0.0,95,0.49,,---,0.52,VWS V14.01,2013-04-18 00:23:00,
2013-04-17 20:28:00,45.0,43.7,29.99,NNW,341,0.0,1.0,95,0.45,,---,0.52,VWS V14.01,2013-04-18 00:28:00,
2013-04-17 20:33:00,45.1,43.8,29.97,NNE,19,0.0,2.0,95,0.41,,---,0.52,VWS V14.01,2013-04-18 00:33:00,
2013-04-17 20:38:00,45.3,44.0,29.97,ENE,71,0.0,3.0,95,0.34,,---,0.52,VWS V14.01,2013-04-18 00:38:00,
2013-04-17 20:43:00,45.4,44.0,29.97,ENE,78,4.0,7.0,95,0.30,,---,0.54,VWS V14.01,2013-04-18 00:43:00,
2013-04-17 20:48:00,45.4,44.0,29.94,ENE,71,2.0,7.0,95,0.27,,---,0.56,VWS V14.01,2013-04-18 00:48:00,
2013-04-17 20:53:00,45.5,44.2,29.94,East,96,4.0,11.0,95,0.21,,---,0.57,VWS V14.01,2013-04-18 00:53:00,
2013-04-17 20:58:00,45.4,44.0,29.94,East,94,4.0,9.0,95,0.15,,---,0.58,VWS V14.01,2013-04-18 00:58:00,
2013-04-17 21:03:00,45.4,44.0,29.90,East,89,9.0,11.0,95,0.08,,---,0.58,VWS V14.01,2013-04-18 01:03:00,
2013-04-17 21:08:00,45.3,44.0,29.90,ENE,77,5.0,10.0,95,0.06,,---,0.58,VWS V14.01,2013-04-18 01:08:00,
2013-04-17 21:13:00,45.3,44.0,29.90,East,84,5.0,10.0,95,0.06,,---,0.58,VWS V14.01,2013-04-18 01:13:00,
2013-04-17 21:18:00,45.3,44.0,29.92,East,95,3.0,11.0,95,0.06,,---,0.58,VWS V14.01,2013-04-18 01:18:00,
2013-04-17 21:23:00,45.4,44.0,29.92,East,81,7.0,11.0,95,0.06,,---,0.58,VWS V14.01,2013-04-18 01:23:00,
2013-04-17 21:28:00,45.3,43.7,29.92,ESE,123,6.0,12.0,94,0.06,,---,0.58,VWS V14.01,2013-04-18 01:28:00,
2013-04-17 21:33:00,45.2,43.6,29.92,ESE,113,12.0,13.0,94,0.06,,---,0.58,VWS V14.01,2013-04-18 01:33:00,
2013-04-17 21:38:00,45.2,43.9,29.92,East,96,6.0,10.0,95,0.06,,---,0.58,VWS V14.01,2013-04-18 01:38:00,
2013-04-17 21:43:00,45.1,43.8,29.92,East,91,10.0,10.0,95,0.06,,---,0.59,VWS V14.01,2013-04-18 01:43:00,
2013-04-17 21:48:00,45.1,43.8,29.91,East,84,7.0,13.0,95,0.06,,---,0.60,VWS V14.01,2013-04-18 01:48:00,
2013-04-17 21:53:00,45.0,43.7,29.91,East,79,5.0,15.0,95,0.06,,---,0.62,VWS V14.01,2013-04-18 01:53:00,
2013-04-17 21:58:00,44.9,43.3,29.91,ENE,63,8.0,11.0,94,0.06,,---,0.63,VWS V14.01,2013-04-18 01:58:00,
2013-04-17 22:03:00,44.7,43.1,29.89,East,98,5.0,11.0,94,0.05,,---,0.63,VWS V14.01,2013-04-18 02:03:00,
2013-04-17 22:08:00,44.7,43.4,29.89,East,89,4.0,12.0,95,0.06,,---,0.64,VWS V14.01,2013-04-18 02:08:00,
2013-04-17 22:13:00,44.7,43.4,29.89,East,95,5.0,9.0,95,0.06,,---,0.64,VWS V14.01,2013-04-18 02:13:00,
2013-04-17 22:18:00,44.7,43.4,29.87,East,92,3.0,10.0,95,0.06,,---,0.64,VWS V14.01,2013-04-18 02:18:00,
2013-04-17 22:23:00,44.7,43.4,29.87,ESE,109,5.0,10.0,95,0.08,,---,0.66,VWS V14.01,2013-04-18 02:23:00,
2013-04-17 22:28:00,44.8,43.5,29.87,East,82,5.0,6.0,95,0.08,,---,0.66,VWS V14.01,2013-04-18 02:28:00,
2013-04-17 22:33:00,44.9,43.6,29.87,ESE,110,6.0,7.0,95,0.08,,---,0.66,VWS V14.01,2013-04-18 02:33:00,
2013-04-17 22:38:00,44.9,43.8,29.87,East,88,3.0,9.0,96,0.08,,---,0.66,VWS V14.01,2013-04-18 02:38:00,
2013-04-17 22:43:00,45.1,44.0,29.87,SE,136,3.0,5.0,96,0.08,,---,0.66,VWS V14.01,2013-04-18 02:43:00,
2013-04-17 22:48:00,45.2,44.1,29.88,ENE,70,4.0,6.0,96,0.07,,---,0.66,VWS V14.01,2013-04-18 02:48:00,
2013-04-17 22:53:00,45.3,44.2,29.88,East,94,2.0,5.0,96,0.06,,---,0.67,VWS V14.01,2013-04-18 02:53:00,
2013-04-17 22:58:00,45.5,44.4,29.88,ESE,106,3.0,6.0,96,0.06,,---,0.68,VWS V14.01,2013-04-18 02:58:00,
2013-04-17 23:03:00,45.8,44.7,29.86,East,93,2.0,7.0,96,0.05,,---,0.68,VWS V14.01,2013-04-18 03:03:00,
2013-04-17 23:08:00,46.0,45.2,29.86,East,85,3.0,8.0,97,0.06,,---,0.69,VWS V14.01,2013-04-18 03:08:00,
2013-04-17 23:13:00,46.3,45.5,29.86,ESE,118,7.0,10.0,97,0.06,,---,0.70,VWS V14.01,2013-04-18 03:13:00,
2013-04-17 23:18:00,46.5,45.7,29.83,ESE,114,7.0,10.0,97,0.07,,---,0.71,VWS V14.01,2013-04-18 03:18:00,
2013-04-17 23:23:00,46.5,45.7,29.83,ESE,119,5.0,7.0,97,0.06,,---,0.71,VWS V14.01,2013-04-18 03:23:00,
2013-04-17 23:28:00,46.5,45.7,29.83,East,89,3.0,9.0,97,0.05,,---,0.71,VWS V14.01,2013-04-18 03:28:00,
2013-04-17 23:33:00,46.5,45.7,29.83,East,89,3.0,7.0,97,0.06,,---,0.72,VWS V14.01,2013-04-18 03:33:00,
2013-04-17 23:38:00,46.5,45.7,29.83,ESE,105,3.0,6.0,97,0.06,,---,0.72,VWS V14.01,2013-04-18 03:38:00,
2013-04-17 23:43:00,46.4,45.6,29.83,East,84,3.0,5.0,97,0.06,,---,0.72,VWS V14.01,2013-04-18 03:43:00,
2013-04-17 23:48:00,46.5,45.7,29.81,ESE,119,3.0,6.0,97,0.06,,---,0.72,VWS V14.01,2013-04-18 03:48:00,
2013-04-17 23:53:00,46.5,45.7,29.81,ESE,113,3.0,3.0,97,0.05,,---,0.72,VWS V14.01,2013-04-18 03:53:00,
2013-04-17 23:58:00,46.6,45.8,29.81,ESE,102,3.0,4.0,97,0.07,,---,0.74,VWS V14.01,2013-04-18 03:58:00,